User: anonymous
Location: Unspecified
(0.0000°N, 0.0000°E)
Time: 12:21:49
(UTC+02:00)
Language:

ATLAS V CENTAUR R/B - Orbit

View from above orbital plane
View from above orbital plane
View from above satellite
View from above satellite

Ground track
Ground track

The orbit data is extracted from the following two-line orbital elements,

1 27500U 02038B   14265.12144022  .00013770  00000-0  18385-2 0  9817
2 27500 017.7962 222.2664 6954072 068.0575 006.5352 02.71758905 97434
Epoch (UTC): 22 September 2014 02:54:52
Eccentricity: 0.6954072
inclination: 17.7962°
perigee height: 229 km
apogee height: 30396 km
right ascension of ascending node: 222.2664°
argument of perigee: 68.0575°
revolutions per day: 2.71758905
mean anomaly at epoch: 6.5352°
orbit number at epoch: 9743

The dashed part of the orbit path shows where the satellite is in the earth's shadow,  

DLR